| time (UTC) | temp F | wind direction | speed knots | gust knots | rain 1hr in | rain 24hr in | rain mn in | humidity % | barometer mb |
| 20260507140409 | 56 | 132 | 0.0 | 0.0 | 0.00 | 0.00 | 0.00 | 89 | |
| 20260507135907 | 56 | 129 | 0.0 | 0.0 | 0.00 | 0.00 | 0.00 | 89 | |
| 20260507135403 | 56 | 131 | 0.0 | 0.0 | 0.00 | 0.00 | 0.00 | 89 | |
| 20260507134901 | 55 | 136 | 0.0 | 0.0 | 0.00 | 0.00 | 0.00 | 89 | |
| 20260507134357 | 55 | 139 | 0.0 | 0.0 | 0.00 | 0.00 | 0.00 | 89 | |
| 20260507133853 | 55 | 127 | 0.0 | 0.0 | 0.00 | 0.00 | 0.00 | 89 | |
| 20260507133348 | 55 | 133 | 0.0 | 0.0 | 0.00 | 0.00 | 0.00 | 89 | |
| 20260507132848 | 55 | 127 | 0.0 | 0.0 | 0.00 | 0.00 | 0.00 | 89 | |
| 20260507132343 | 55 | 127 | 0.0 | 0.0 | 0.00 | 0.00 | 0.00 | 89 | |
| 20260507131841 | 54 | 131 | 0.0 | 0.0 | 0.00 | 0.00 | 0.00 | 89 | |
| 20260507131337 | 54 | 128 | 0.0 | 0.0 | 0.00 | 0.00 | 0.00 | 89 | |
| 20260507130834 | 54 | 139 | 0.0 | 0.0 | 0.00 | 0.00 | 0.00 | 89 | |
| 20260507130331 | 54 | 127 | 0.0 | 0.0 | 0.00 | 0.00 | 0.00 | 89 | |
| 20260507125830 | 54 | 136 | 0.0 | 0.0 | 0.00 | 0.00 | 0.00 | 89 | |
| 20260507125327 | 54 | 131 | 0.9 | 0.9 | 0.00 | 0.00 | 0.00 | 89 | |
| 20260507124824 | 54 | 124 | 0.9 | 1.7 | 0.00 | 0.00 | 0.00 | 89 | |
| 20260507124321 | 54 | 142 | 0.9 | 0.9 | 0.00 | 0.00 | 0.00 | 89 | |
| 20260507123819 | 54 | 129 | 0.9 | 0.9 | 0.00 | 0.00 | 0.00 | 88 | |
| 20260507123316 | 54 | 134 | 1.7 | 1.7 | 0.00 | 0.00 | 0.00 | 88 | |
| 20260507122812 | 53 | 123 | 0.9 | 1.7 | 0.00 | 0.00 | 0.00 | 88 | |
| 20260507122308 | 53 | 121 | 1.7 | 1.7 | 0.00 | 0.00 | 0.00 | 88 | |
| 20260507121804 | 53 | 127 | 0.0 | 0.9 | 0.00 | 0.00 | 0.00 | 88 | |
| 20260507121300 | 53 | 125 | 0.9 | 1.7 | 0.00 | 0.00 | 0.00 | 88 | |
| 20260507120756 | 53 | 137 | 0.9 | 1.7 | 0.00 | 0.00 | 0.00 | 88 | |
| 20260507120253 | 53 | 126 | 1.7 | 1.7 | 0.00 | 0.00 | 0.00 | 88 | |
| 20260507115749 | 53 | 132 | 0.9 | 1.7 | 0.00 | 0.00 | 0.00 | 88 | |
| 20260507115245 | 53 | 139 | 2.6 | 2.6 | 0.00 | 0.00 | 0.00 | 88 | |
| 20260507114741 | 53 | 126 | 1.7 | 1.7 | 0.00 | 0.00 | 0.00 | 88 | |
| 20260507114238 | 53 | 132 | 0.9 | 1.7 | 0.00 | 0.00 | 0.00 | 88 | |
| 20260507113736 | 53 | 115 | 0.9 | 1.7 | 0.00 | 0.00 | 0.00 | 88 | |
| 20260507113232 | 53 | 143 | 0.9 | 0.9 | 0.00 | 0.00 | 0.00 | 88 | |
| 20260507112731 | 53 | 140 | 1.7 | 1.7 | 0.00 | 0.00 | 0.00 | 88 | |
| 20260507112227 | 53 | 161 | 2.6 | 2.6 | 0.00 | 0.00 | 0.00 | 88 | |
| 20260507111725 | 53 | 130 | 1.7 | 1.7 | 0.00 | 0.00 | 0.00 | 87 | |
| 20260507111221 | 53 | 129 | 1.7 | 1.7 | 0.00 | 0.00 | 0.00 | 87 | |
| 20260507110717 | 53 | 115 | 0.9 | 1.7 | 0.00 | 0.00 | 0.00 | 87 | |
| 20260507110214 | 53 | 139 | 0.9 | 1.7 | 0.00 | 0.00 | 0.00 | 87 | |
| 20260507105711 | 53 | 131 | 1.7 | 1.7 | 0.00 | 0.00 | 0.00 | 87 | |
| 20260507105206 | 54 | 134 | 0.0 | 0.9 | 0.00 | 0.00 | 0.00 | 87 | |
| 20260507104704 | 54 | 125 | 0.9 | 1.7 | 0.00 | 0.00 | 0.00 | 87 | |
| 20260507104201 | 54 | 137 | 0.9 | 1.7 | 0.00 | 0.00 | 0.00 | 87 | |
| 20260507103656 | 54 | 128 | 0.9 | 1.7 | 0.00 | 0.00 | 0.00 | 87 | |
| 20260507103153 | 54 | 134 | 0.0 | 0.9 | 0.00 | 0.00 | 0.00 | 87 | |
| 20260507102649 | 54 | 128 | 0.9 | 0.9 | 0.00 | 0.00 | 0.00 | 87 | |
| 20260507102146 | 53 | 124 | 0.0 | 0.0 | 0.00 | 0.00 | 0.00 | 87 | |
| 20260507101642 | 53 | 128 | 0.9 | 0.9 | 0.00 | 0.00 | 0.00 | 87 | |
| 20260507101138 | 53 | 134 | 1.7 | 1.7 | 0.00 | 0.00 | 0.00 | 87 | |
| 20260507100635 | 53 | 158 | 1.7 | 1.7 | 0.00 | 0.00 | 0.00 | 86 | |
| 20260507100134 | 53 | 122 | 1.7 | 1.7 | 0.00 | 0.00 | 0.00 | 86 | |
| 20260507095631 | 53 | 133 | 1.7 | 1.7 | 0.00 | 0.00 | 0.00 | 86 | |
| 20260507095127 | 53 | 125 | 0.9 | 0.9 | 0.00 | 0.00 | 0.00 | 86 | |
| 20260507094624 | 53 | 120 | 0.9 | 1.7 | 0.00 | 0.00 | 0.00 | 86 | |
| 20260507094121 | 54 | 126 | 1.7 | 1.7 | 0.00 | 0.00 | 0.00 | 85 | |
| 20260507093618 | 54 | 123 | 0.9 | 0.9 | 0.00 | 0.00 | 0.00 | 85 | |
| 20260507093117 | 54 | 126 | 0.9 | 0.9 | 0.00 | 0.00 | 0.00 | 85 | |
| 20260507092613 | 54 | 134 | 1.7 | 2.6 | 0.00 | 0.00 | 0.00 | 85 | |
| 20260507092109 | 54 | 119 | 0.9 | 1.7 | 0.00 | 0.00 | 0.00 | 85 | |
| 20260507091606 | 54 | 132 | 0.9 | 0.9 | 0.00 | 0.00 | 0.00 | 85 | |
| 20260507091102 | 54 | 135 | 0.9 | 0.9 | 0.00 | 0.00 | 0.00 | 85 | |
| 20260507090558 | 54 | 124 | 0.9 | 0.9 | 0.00 | 0.00 | 0.00 | 85 | |
| 20260507090055 | 54 | 133 | 0.0 | 0.9 | 0.00 | 0.00 | 0.00 | 85 | |
| 20260507085552 | 54 | 145 | 1.7 | 2.6 | 0.00 | 0.00 | 0.00 | 85 | |
| 20260507085049 | 54 | 143 | 0.9 | 0.9 | 0.00 | 0.00 | 0.00 | 85 | |
| 20260507084546 | 54 | 143 | 1.7 | 1.7 | 0.00 | 0.00 | 0.00 | 85 | |
| 20260507084043 | 54 | 134 | 0.9 | 0.9 | 0.00 | 0.00 | 0.00 | 85 | |
| 20260507083539 | 54 | 135 | 1.7 | 1.7 | 0.00 | 0.00 | 0.00 | 85 | |
| 20260507083036 | 54 | 130 | 2.6 | 2.6 | 0.00 | 0.00 | 0.00 | 85 | |
| 20260507082532 | 54 | 127 | 0.9 | 0.9 | 0.00 | 0.00 | 0.00 | 85 | |
| 20260507082029 | 54 | 126 | 0.9 | 0.9 | 0.00 | 0.00 | 0.00 | 84 | |
| 20260507081525 | 54 | 119 | 0.9 | 1.7 | 0.00 | 0.00 | 0.00 | 84 | |
| 20260507081022 | 54 | 114 | 1.7 | 1.7 | 0.00 | 0.00 | 0.00 | 84 | |
| 20260507080518 | 54 | 143 | 2.6 | 2.6 | 0.00 | 0.00 | 0.00 | 84 | |
| 20260507080015 | 54 | 128 | 1.7 | 2.6 | 0.00 | 0.00 | 0.00 | 83 | |
| 20260507075510 | 54 | 148 | 1.7 | 1.7 | 0.00 | 0.00 | 0.00 | 83 | |
| 20260507075007 | 54 | 138 | 1.7 | 1.7 | 0.00 | 0.00 | 0.00 | 83 | |
| 20260507074503 | 55 | 127 | 1.7 | 1.7 | 0.00 | 0.00 | 0.00 | 83 | |
| 20260507074002 | 55 | 132 | 1.7 | 1.7 | 0.00 | 0.00 | 0.00 | 82 | |
| 20260507073457 | 55 | 126 | 1.7 | 1.7 | 0.00 | 0.00 | 0.00 | 82 | |
| 20260507072954 | 55 | 134 | 0.9 | 0.9 | 0.00 | 0.00 | 0.00 | 82 | |
| 20260507072452 | 55 | 136 | 0.9 | 0.9 | 0.00 | 0.00 | 0.00 | 82 | |
| 20260507071949 | 55 | 144 | 1.7 | 1.7 | 0.00 | 0.00 | 0.00 | 82 | |
| 20260507071446 | 55 | 129 | 0.9 | 0.9 | 0.00 | 0.00 | 0.00 | 83 | |
| 20260507070942 | 55 | 134 | 1.7 | 1.7 | 0.00 | 0.00 | 0.00 | 83 | |
| 20260507070440 | 55 | 133 | 1.7 | 2.6 | 0.00 | 0.00 | 0.00 | 83 | |
| 20260507065936 | 55 | 144 | 1.7 | 1.7 | 0.00 | 0.00 | 0.00 | 83 | |
| 20260507065433 | 55 | 119 | 2.6 | 2.6 | 0.00 | 0.00 | 0.00 | 83 | |
| 20260507064930 | 55 | 123 | 1.7 | 1.7 | 0.00 | 0.00 | 0.00 | 82 | |
| 20260507064429 | 55 | 133 | 3.5 | 3.5 | 0.00 | 0.00 | 0.00 | 82 | |
| 20260507063926 | 55 | 130 | 1.7 | 2.6 | 0.00 | 0.00 | 0.00 | 82 | |
| 20260507063422 | 55 | 147 | 0.9 | 0.9 | 0.00 | 0.00 | 0.00 | 81 | |
| 20260507062920 | 55 | 131 | 2.6 | 2.6 | 0.00 | 0.00 | 0.00 | 81 | |
| 20260507062416 | 56 | 142 | 1.7 | 2.6 | 0.00 | 0.00 | 0.00 | 81 | |
| 20260507061909 | 56 | 128 | 1.7 | 2.6 | 0.00 | 0.00 | 0.00 | 81 | |
| 20260507061407 | 56 | 127 | 1.7 | 2.6 | 0.00 | 0.00 | 0.00 | 81 | |
| 20260507060905 | 56 | 137 | 1.7 | 1.7 | 0.00 | 0.00 | 0.00 | 81 | |
| 20260507060401 | 57 | 131 | 2.6 | 2.6 | 0.00 | 0.00 | 0.00 | 82 | |
| 20260507055858 | 57 | 135 | 1.7 | 1.7 | 0.00 | 0.00 | 0.00 | 82 | |
| 20260507055353 | 57 | 127 | 0.9 | 0.9 | 0.00 | 0.00 | 0.00 | 82 | |
| 20260507054850 | 57 | 134 | 0.9 | 0.9 | 0.00 | 0.00 | 0.00 | 82 | |
| 20260507054346 | 57 | 128 | 0.9 | 0.9 | 0.00 | 0.00 | 0.00 | 83 | |
| 20260507053843 | 57 | 118 | 1.7 | 1.7 | 0.00 | 0.00 | 0.00 | 83 | |
| 20260507053341 | 57 | 133 | 1.7 | 1.7 | 0.00 | 0.00 | 0.00 | 82 | |
| 20260507052840 | 57 | 130 | 0.9 | 0.9 | 0.00 | 0.00 | 0.00 | 82 | |
| 20260507052336 | 57 | 136 | 0.9 | 1.7 | 0.00 | 0.00 | 0.00 | 82 | |
| 20260507051834 | 57 | 129 | 0.9 | 1.7 | 0.00 | 0.00 | 0.00 | 82 | |
| 20260507051331 | 57 | 143 | 0.9 | 1.7 | 0.00 | 0.00 | 0.00 | 82 | |
| 20260507050828 | 57 | 131 | 0.9 | 1.7 | 0.00 | 0.00 | 0.00 | 81 | |
| 20260507050324 | 57 | 133 | 1.7 | 2.6 | 0.00 | 0.00 | 0.00 | 81 | |
| 20260507045821 | 57 | 125 | 0.9 | 0.9 | 0.00 | 0.00 | 0.00 | 81 | |
| 20260507045318 | 57 | 132 | 1.7 | 2.6 | 0.00 | 0.00 | 0.00 | 80 | |
| 20260507044815 | 57 | 143 | 1.7 | 1.7 | 0.00 | 0.00 | 0.00 | 80 | |
| 20260507044311 | 57 | 150 | 2.6 | 2.6 | 0.00 | 0.00 | 0.00 | 79 | |
| 20260507043808 | 58 | 128 | 1.7 | 1.7 | 0.00 | 0.00 | 0.00 | 79 | |
| 20260507043304 | 58 | 134 | 0.9 | 1.7 | 0.00 | 0.00 | 0.00 | 79 | |
| 20260507042801 | 58 | 132 | 1.7 | 1.7 | 0.00 | 0.00 | 0.00 | 79 | |
| 20260507042256 | 58 | 135 | 1.7 | 1.7 | 0.00 | 0.00 | 0.00 | 79 | |
| 20260507041754 | 59 | 136 | 0.9 | 0.9 | 0.00 | 0.00 | 0.00 | 79 | |
| 20260507041250 | 59 | 127 | 0.9 | 0.9 | 0.00 | 0.00 | 0.00 | 78 | |
| 20260507040747 | 59 | 132 | 0.0 | 0.9 | 0.00 | 0.00 | 0.00 | 78 | |
| 20260507040243 | 59 | 144 | 0.9 | 1.7 | 0.00 | 0.00 | 0.00 | 78 | |
| 20260507035739 | 59 | 137 | 0.0 | 0.0 | 0.00 | 0.00 | 0.00 | 78 | |
| 20260507035234 | 59 | 133 | 0.0 | 0.0 | 0.00 | 0.00 | 0.00 | 77 | |
| 20260507034732 | 59 | 137 | 0.0 | 0.0 | 0.00 | 0.00 | 0.00 | 77 | |
| 20260507034229 | 59 | 134 | 0.0 | 0.0 | 0.00 | 0.00 | 0.00 | 77 | |
| 20260507033728 | 59 | 131 | 0.0 | 0.9 | 0.00 | 0.00 | 0.00 | 77 | |
| 20260507033225 | 60 | 129 | 0.0 | 0.0 | 0.00 | 0.00 | 0.00 | 76 | |
| 20260507032722 | 60 | 131 | 0.0 | 0.0 | 0.00 | 0.00 | 0.00 | 76 | |
| 20260507032218 | 60 | 130 | 0.0 | 0.9 | 0.00 | 0.00 | 0.00 | 75 | |
| 20260507031715 | 60 | 132 | 0.0 | 0.9 | 0.00 | 0.00 | 0.00 | 74 | |
| 20260507031211 | 61 | 147 | 0.9 | 0.9 | 0.00 | 0.00 | 0.00 | 74 | |
| 20260507030708 | 62 | 130 | 0.0 | 0.9 | 0.00 | 0.00 | 0.00 | 73 | |
| 20260507030206 | 62 | 133 | 0.0 | 0.0 | 0.00 | 0.00 | 0.00 | 72 | |
| 20260507025703 | 63 | 130 | 1.7 | 1.7 | 0.00 | 0.00 | 0.00 | 71 | |
| 20260507025200 | 63 | 131 | 0.0 | 0.0 | 0.00 | 0.00 | 0.00 | 70 | |
| 20260507024658 | 64 | 122 | 0.0 | 0.0 | 0.00 | 0.00 | 0.00 | 70 | |
| 20260507024155 | 64 | 127 | 0.0 | 0.0 | 0.00 | 0.00 | 0.00 | 68 | |
| 20260507023650 | 65 | 133 | 0.0 | 0.0 | 0.00 | 0.00 | 0.00 | 68 | |
| 20260507023148 | 65 | 146 | 0.9 | 0.9 | 0.00 | 0.00 | 0.00 | 67 | |
| 20260507022645 | 65 | 131 | 0.9 | 0.9 | 0.00 | 0.00 | 0.00 | 67 | |
| 20260507022140 | 66 | 123 | 0.9 | 0.9 | 0.00 | 0.00 | 0.00 | 66 | |
| 20260507021637 | 66 | 109 | 0.9 | 0.9 | 0.00 | 0.00 | 0.00 | 65 | |
| 20260507021132 | 66 | 229 | 1.7 | 1.7 | 0.00 | 0.00 | 0.00 | 65 | |
| 20260507020631 | 67 | 109 | 0.9 | 0.9 | 0.00 | 0.00 | 0.00 | 65 | |
| 20260507020127 | 67 | 288 | 2.6 | 3.5 | 0.00 | 0.00 | 0.00 | 65 | |
| 20260507015625 | 67 | 21 | 1.7 | 1.7 | 0.00 | 0.00 | 0.00 | 64 | |
| 20260507015122 | 67 | 137 | 0.0 | 0.9 | 0.00 | 0.00 | 0.00 | 64 | |
| 20260507014619 | 67 | 84 | 0.9 | 1.7 | 0.00 | 0.00 | 0.00 | 63 | |
| 20260507014115 | 67 | 126 | 0.9 | 0.9 | 0.00 | 0.00 | 0.00 | 64 | |
| 20260507013612 | 67 | 133 | 1.7 | 2.6 | 0.00 | 0.00 | 0.00 | 63 | |
| 20260507013109 | 67 | 257 | 1.7 | 1.7 | 0.00 | 0.00 | 0.00 | 64 | |
| 20260507012606 | 67 | 26 | 2.6 | 2.6 | 0.00 | 0.00 | 0.00 | 64 | |
| 20260507012101 | 68 | 298 | 3.5 | 6.1 | 0.00 | 0.00 | 0.00 | 64 | |
| 20260507011600 | 68 | 306 | 4.3 | 5.2 | 0.00 | 0.00 | 0.00 | 64 | |
| 20260507011055 | 68 | 136 | 0.9 | 0.9 | 0.00 | 0.00 | 0.00 | 63 | |
| 20260507010550 | 68 | 346 | 2.6 | 3.5 | 0.00 | 0.00 | 0.00 | 62 | |
| 20260507010047 | 68 | 168 | 3.5 | 3.5 | 0.00 | 0.00 | 0.00 | 62 | |
| 20260507005544 | 68 | 288 | 4.3 | 5.2 | 0.00 | 0.00 | 0.00 | 63 | |
| 20260507005040 | 68 | 316 | 0.9 | 1.7 | 0.00 | 0.00 | 0.00 | 62 | |
| 20260507004538 | 68 | 114 | 3.5 | 3.5 | 0.00 | 0.00 | 0.00 | 62 | |
| 20260507004035 | 68 | 345 | 3.5 | 3.5 | 0.00 | 0.00 | 0.00 | 63 | |
| 20260507003531 | 68 | 74 | 3.5 | 5.2 | 0.00 | 0.00 | 0.00 | 62 | |
| 20260507003026 | 68 | 247 | 3.5 | 3.5 | 0.00 | 0.00 | 0.00 | 62 | |
| 20260507002522 | 68 | 140 | 0.0 | 0.0 | 0.00 | 0.00 | 0.00 | 60 | |
| 20260507002019 | 68 | 294 | 3.5 | 5.2 | 0.00 | 0.00 | 0.00 | 60 | |
| 20260507001515 | 69 | 158 | 1.7 | 1.7 | 0.00 | 0.00 | 0.00 | 61 | |
| 20260507001013 | 69 | 103 | 1.7 | 1.7 | 0.00 | 0.00 | 0.00 | 59 | |
| 20260507000509 | 69 | 46 | 4.3 | 6.1 | 0.00 | 0.00 | 0.00 | 59 | |
| 20260507000005 | 69 | 35 | 5.2 | 7.0 | 0.00 | 0.00 | 0.00 | 60 | |
| 20260506235502 | 68 | 224 | 4.3 | 5.2 | 0.00 | 0.00 | 0.00 | 59 | |
| 20260506234957 | 68 | 132 | 0.0 | 0.9 | 0.00 | 0.00 | 0.00 | 59 | |
| 20260506234455 | 68 | 125 | 1.7 | 2.6 | 0.00 | 0.00 | 0.00 | 60 | |
| 20260506233952 | 68 | 20 | 2.6 | 3.5 | 0.00 | 0.00 | 0.00 | 59 | |
| 20260506233449 | 68 | 127 | 0.0 | 0.9 | 0.00 | 0.00 | 0.00 | 59 | |
| 20260506232945 | 68 | 90 | 1.7 | 2.6 | 0.00 | 0.00 | 0.00 | 59 | |
| 20260506232442 | 69 | 352 | 6.1 | 7.8 | 0.00 | 0.00 | 0.00 | 59 | |
| 20260506231937 | 68 | 40 | 0.9 | 1.7 | 0.00 | 0.00 | 0.00 | 60 | |
| 20260506231436 | 68 | 51 | 3.5 | 6.1 | 0.00 | 0.00 | 0.00 | 60 | |
| 20260506230932 | 68 | 251 | 3.5 | 5.2 | 0.00 | 0.00 | 0.00 | 59 | |
| 20260506230428 | 68 | 166 | 3.5 | 6.1 | 0.00 | 0.00 | 0.00 | 61 | |
| 20260506225925 | 68 | 334 | 3.5 | 3.5 | 0.00 | 0.00 | 0.00 | 61 | |
| 20260506225423 | 68 | 21 | 3.5 | 3.5 | 0.00 | 0.00 | 0.00 | 61 | |
| 20260506224920 | 69 | 155 | 0.9 | 0.9 | 0.00 | 0.00 | 0.00 | 60 | |
| 20260506224417 | 69 | 140 | 0.9 | 0.9 | 0.00 | 0.00 | 0.00 | 61 | |
| 20260506223913 | 69 | 101 | 3.5 | 3.5 | 0.00 | 0.00 | 0.00 | 60 | |
| 20260506223408 | 69 | 338 | 3.5 | 6.1 | 0.00 | 0.00 | 0.00 | 62 | |
| 20260506222906 | 69 | 70 | 5.2 | 7.0 | 0.00 | 0.00 | 0.00 | 60 | |
| 20260506222402 | 69 | 301 | 6.1 | 8.7 | 0.00 | 0.00 | 0.00 | 61 | |
| 20260506221859 | 69 | 264 | 3.5 | 6.1 | 0.00 | 0.00 | 0.00 | 61 | |
| 20260506221356 | 69 | 294 | 3.5 | 5.2 | 0.00 | 0.00 | 0.00 | 61 | |
| 20260506220854 | 69 | 168 | 4.3 | 6.1 | 0.00 | 0.00 | 0.00 | 61 | |
| 20260506220349 | 69 | 295 | 5.2 | 8.7 | 0.00 | 0.00 | 0.00 | 61 | |
| 20260506215846 | 69 | 138 | 1.7 | 2.6 | 0.00 | 0.00 | 0.00 | 60 | |
| 20260506215342 | 70 | 200 | 1.7 | 3.5 | 0.00 | 0.00 | 0.00 | 58 | |
| 20260506214838 | 70 | 357 | 1.7 | 1.7 | 0.00 | 0.00 | 0.00 | 59 | |
| 20260506214335 | 70 | 33 | 3.5 | 5.2 | 0.00 | 0.00 | 0.00 | 59 | |
| 20260506213833 | 70 | 352 | 3.5 | 5.2 | 0.00 | 0.00 | 0.00 | 59 | |
| 20260506213330 | 70 | 225 | 7.0 | 7.8 | 0.00 | 0.00 | 0.00 | 58 | |
| 20260506212828 | 70 | 154 | 1.7 | 3.5 | 0.00 | 0.00 | 0.00 | 57 | |
| 20260506212323 | 69 | 274 | 3.5 | 6.1 | 0.00 | 0.00 | 0.00 | 58 | |
| 20260506211818 | 69 | 111 | 1.7 | 2.6 | 0.00 | 0.00 | 0.00 | 59 | |
| 20260506211315 | 69 | 337 | 3.5 | 6.1 | 0.00 | 0.00 | 0.00 | 57 | |
| 20260506210813 | 69 | 267 | 4.3 | 7.8 | 0.00 | 0.00 | 0.00 | 57 | |
| 20260506210309 | 69 | 283 | 4.3 | 7.0 | 0.00 | 0.00 | 0.00 | 58 | |
| 20260506205806 | 69 | 264 | 3.5 | 5.2 | 0.00 | 0.00 | 0.00 | 57 | |
| 20260506205305 | 69 | 112 | 1.7 | 1.7 | 0.00 | 0.00 | 0.00 | 58 | |
| 20260506204759 | 69 | 72 | 4.3 | 6.1 | 0.00 | 0.00 | 0.00 | 59 | |
| 20260506204257 | 69 | 340 | 4.3 | 5.2 | 0.00 | 0.00 | 0.00 | 59 | |
| 20260506203754 | 69 | 185 | 2.6 | 3.5 | 0.00 | 0.00 | 0.00 | 59 | |
| 20260506203251 | 69 | 320 | 2.6 | 2.6 | 0.00 | 0.00 | 0.00 | 59 | |
| 20260506202748 | 69 | 303 | 3.5 | 7.0 | 0.00 | 0.00 | 0.00 | 58 | |
| 20260506202245 | 69 | 298 | 4.3 | 6.1 | 0.00 | 0.00 | 0.00 | 59 | |
| 20260506201741 | 70 | 323 | 7.0 | 8.7 | 0.00 | 0.00 | 0.00 | 59 | |
| 20260506201238 | 70 | 259 | 3.5 | 5.2 | 0.00 | 0.00 | 0.00 | 59 | |
| 20260506200735 | 70 | 272 | 5.2 | 7.0 | 0.00 | 0.00 | 0.00 | 59 | |
| 20260506200232 | 70 | 308 | 7.8 | 8.7 | 0.00 | 0.00 | 0.00 | 57 | |
| 20260506195728 | 70 | 31 | 1.7 | 2.6 | 0.00 | 0.00 | 0.00 | 58 | |
| 20260506195225 | 70 | 12 | 7.8 | 12.2 | 0.00 | 0.00 | 0.00 | 58 | |
| 20260506194722 | 70 | 320 | 2.6 | 5.2 | 0.00 | 0.00 | 0.00 | 58 | |
| 20260506194218 | 70 | 338 | 1.7 | 3.5 | 0.00 | 0.00 | 0.00 | 58 | |
| 20260506193716 | 70 | 227 | 6.1 | 7.0 | 0.00 | 0.00 | 0.00 | 58 | |
| 20260506193213 | 70 | 121 | 0.9 | 0.9 | 0.00 | 0.00 | 0.00 | 58 | |
| 20260506192709 | 70 | 63 | 3.5 | 3.5 | 0.00 | 0.00 | 0.00 | 58 | |
| 20260506192206 | 70 | 326 | 7.0 | 9.6 | 0.00 | 0.00 | 0.00 | 57 | |
| 20260506191657 | 69 | 342 | 2.6 | 3.5 | 0.00 | 0.00 | 0.00 | 57 | |
| 20260506191153 | 69 | 149 | 0.0 | 0.9 | 0.00 | 0.00 | 0.00 | 58 | |
| 20260506190650 | 69 | 283 | 3.5 | 3.5 | 0.00 | 0.00 | 0.00 | 57 | |
| 20260506190147 | 69 | 134 | 0.0 | 0.0 | 0.00 | 0.00 | 0.00 | 57 | |
| 20260506185644 | 69 | 313 | 2.6 | 3.5 | 0.00 | 0.00 | 0.00 | 58 | |
| 20260506185140 | 68 | 328 | 1.7 | 2.6 | 0.00 | 0.00 | 0.00 | 57 | |
| 20260506184638 | 68 | 302 | 0.9 | 0.9 | 0.00 | 0.00 | 0.00 | 58 | |
| 20260506184135 | 68 | 324 | 0.9 | 2.6 | 0.00 | 0.00 | 0.00 | 57 | |
| 20260506183632 | 67 | 233 | 0.9 | 1.7 | 0.00 | 0.00 | 0.00 | 59 | |
| 20260506183127 | 67 | 31 | 3.5 | 6.1 | 0.00 | 0.00 | 0.00 | 58 | |
| 20260506182625 | 66 | 352 | 2.6 | 2.6 | 0.00 | 0.00 | 0.00 | 58 | |
| 20260506182122 | 66 | 127 | 0.0 | 0.0 | 0.00 | 0.00 | 0.00 | 58 | |
| 20260506181620 | 66 | 14 | 0.9 | 1.7 | 0.00 | 0.00 | 0.00 | 58 | |
| 20260506181117 | 65 | 139 | 1.7 | 1.7 | 0.00 | 0.00 | 0.00 | 57 | |
| 20260506180614 | 65 | 37 | 0.9 | 1.7 | 0.00 | 0.00 | 0.00 | 57 | |
| 20260506180110 | 64 | 108 | 0.0 | 0.0 | 0.00 | 0.00 | 0.00 | 59 | |
| 20260506175606 | 64 | 137 | 0.0 | 0.0 | 0.00 | 0.00 | 0.00 | 60 | |
| 20260506175102 | 64 | 232 | 3.5 | 3.5 | 0.00 | 0.00 | 0.00 | 60 | |
| 20260506174602 | 64 | 343 | 1.7 | 2.6 | 0.00 | 0.00 | 0.00 | 61 | |
| 20260506174057 | 63 | 133 | 0.0 | 0.0 | 0.00 | 0.00 | 0.00 | 63 | |
| 20260506173555 | 63 | 301 | 0.9 | 0.9 | 0.00 | 0.00 | 0.00 | 62 | |
| 20260506173052 | 63 | 304 | 1.7 | 2.6 | 0.00 | 0.00 | 0.00 | 64 | |
| 20260506172549 | 63 | 130 | 0.0 | 0.0 | 0.00 | 0.00 | 0.00 | 64 | |
| 20260506172045 | 62 | 317 | 0.9 | 1.7 | 0.00 | 0.00 | 0.00 | 63 | |
| 20260506171543 | 62 | 4 | 3.5 | 5.2 | 0.00 | 0.00 | 0.00 | 64 | |
| 20260506171041 | 62 | 293 | 4.3 | 6.1 | 0.00 | 0.00 | 0.00 | 63 | |
| 20260506170538 | 62 | 136 | 1.7 | 1.7 | 0.00 | 0.00 | 0.00 | 64 | |
| 20260506170035 | 62 | 272 | 1.7 | 2.6 | 0.00 | 0.00 | 0.00 | 64 | |
| 20260506165534 | 61 | 121 | 2.6 | 3.5 | 0.00 | 0.00 | 0.00 | 64 | |
| 20260506165030 | 61 | 123 | 0.0 | 0.0 | 0.00 | 0.00 | 0.00 | 64 | |
| 20260506164527 | 61 | 34 | 0.0 | 0.9 | 0.00 | 0.00 | 0.00 | 64 | |
| 20260506164024 | 60 | 133 | 0.0 | 0.9 | 0.00 | 0.00 | 0.00 | 66 | |
| 20260506163520 | 60 | 66 | 0.9 | 1.7 | 0.00 | 0.00 | 0.00 | 67 | |
| 20260506163016 | 60 | 37 | 0.9 | 1.7 | 0.00 | 0.00 | 0.00 | 68 | |
| 20260506162512 | 60 | 297 | 0.9 | 1.7 | 0.00 | 0.00 | 0.00 | 68 | |
| 20260506162009 | 59 | 326 | 2.6 | 3.5 | 0.00 | 0.00 | 0.00 | 69 | |
| 20260506161507 | 59 | 145 | 0.0 | 0.0 | 0.00 | 0.00 | 0.00 | 70 | |
| 20260506161004 | 59 | 132 | 0.9 | 0.9 | 0.00 | 0.00 | 0.00 | 70 | |
| 20260506160502 | 59 | 315 | 0.9 | 1.7 | 0.00 | 0.00 | 0.00 | 71 | |
| 20260506155958 | 58 | 129 | 0.0 | 0.9 | 0.00 | 0.00 | 0.00 | 72 | |
| 20260506155456 | 58 | 302 | 1.7 | 3.5 | 0.00 | 0.00 | 0.00 | 73 | |
| 20260506153628 | 58 | 128 | 0.0 | 0.0 | 0.00 | 0.00 | 0.00 | 74 | |
| 20260506153125 | 58 | 136 | 0.0 | 0.9 | 0.00 | 0.00 | 0.00 | 74 | |
| 20260506152622 | 57 | 127 | 0.0 | 0.0 | 0.00 | 0.00 | 0.00 | 74 | |
| 20260506152120 | 57 | 135 | 0.0 | 0.0 | 0.00 | 0.00 | 0.00 | 74 | |
| 20260506151619 | 56 | 135 | 0.0 | 0.0 | 0.00 | 0.00 | 0.00 | 75 | |
| 20260506151115 | 56 | 132 | 0.0 | 0.0 | 0.00 | 0.00 | 0.00 | 77 | |
| 20260506150612 | 55 | 131 | 0.0 | 0.0 | 0.00 | 0.00 | 0.00 | 79 | |
| 20260506150109 | 55 | 131 | 0.0 | 0.0 | 0.00 | 0.00 | 0.00 | 80 | |
| 20260506145606 | 55 | 128 | 0.0 | 0.0 | 0.00 | 0.00 | 0.00 | 82 | |
| 20260506145103 | 54 | 129 | 0.0 | 0.0 | 0.00 | 0.00 | 0.00 | 82 | |
| 20260506144559 | 54 | 129 | 0.0 | 0.0 | 0.00 | 0.00 | 0.00 | 83 | |
| 20260506144056 | 53 | 129 | 0.0 | 0.0 | 0.00 | 0.00 | 0.00 | 83 | |
| 20260506143554 | 53 | 129 | 0.0 | 0.0 | 0.00 | 0.00 | 0.00 | 83 | |
| 20260506143052 | 52 | 133 | 0.0 | 0.0 | 0.00 | 0.00 | 0.00 | 83 | |
| 20260506142550 | 52 | 129 | 0.0 | 0.0 | 0.00 | 0.00 | 0.00 | 84 | |
| 20260506142048 | 51 | 131 | 0.0 | 0.0 | 0.00 | 0.00 | 0.00 | 85 | |
| 20260506141545 | 51 | 129 | 0.0 | 0.0 | 0.00 | 0.00 | 0.00 | 85 | |
| 20260506141044 | 51 | 133 | 0.0 | 0.0 | 0.00 | 0.00 | 0.00 | 84 |